This demonstration page uses our WeatherBlox Daily Observations layout. Learn more.

40.92945, -100.16068

Hourly Observations for January 15, 2015

Temp ( °F °C ) Dew Point ( °F °C ) Humidity (%) Winds ( mph kmh ) Pressure ( in mb ) Visibility ( mi km ) Precip ( " mm )
12:15 am 00:15 Clear 21 -6.2 18 -8 87 87 WSW 3 6 30.27 1025 10 16.0934 N/A
12:35 am 00:35 Clear 19 -7.5 15 -9.3 87 87 W 8 13 30.27 1025 10 16.0934 N/A
12:55 am 00:55 Clear 19 -7.3 16 -9.1 87 87 NW 9 15 30.27 1025 10 16.0934 N/A
1:15 am 01:15 Clear 19 -7.3 16 -9 88 88 NW 8 13 30.27 1025 10 16.0934 N/A
1:35 am 01:35 Clear 18 -7.7 15 -9.5 87 87 WNW 3 6 30.3 1026 10 16.0934 N/A
1:55 am 01:55 Clear 20 -6.5 18 -7.9 90 90 Calm 30.27 1025 10 16.0934 N/A
2:15 am 02:15 Clear 22 -5.7 19 -7.5 87 87 WNW 10 17 30.24 1024 10 16.0934 N/A
2:35 am 02:35 Clear 25 -4 21 -6.2 85 85 WNW 16 26 30.24 1024 10 16.0934 N/A
2:55 am 02:55 Clear 24 -4.2 20 -6.5 84 84 WNW 15 24 30.24 1024 10 16.0934 N/A
3:15 am 03:15 Clear 24 -4.6 20 -6.9 84 84 WNW 13 20 30.27 1025 10 16.0934 N/A
3:35 am 03:35 Clear 22 -5.5 19 -7.3 87 87 WNW 12 19 30.27 1025 10 16.0934 N/A
3:55 am 03:55 Clear 22 -5.5 19 -7.4 87 87 WNW 13 20 30.27 1025 10 16.0934 N/A
4:15 am 04:15 Clear 23 -5.2 19 -7.4 85 85 WNW 13 20 30.27 1025 10 16.0934 N/A
4:35 am 04:35 Clear 22 -5.3 19 -7.5 85 85 WNW 14 22 30.27 1025 10 16.0934 N/A
4:55 am 04:55 Clear 22 -5.5 18 -7.6 85 85 WNW 15 24 30.27 1025 10 16.0934 N/A
5:15 am 05:15 Clear 23 -5.2 19 -7.5 84 84 WNW 13 20 30.3 1026 10 16.0934 N/A
5:35 am 05:35 Clear 24 -4.6 19 -7.3 82 82 WNW 14 22 30.27 1025 10 16.0934 N/A
5:55 am 05:55 Clear 24 -4.6 19 -7.4 81 81 WNW 17 28 30.27 1025 10 16.0934 N/A
6:15 am 06:15 Clear 24 -4.7 18 -7.6 80 80 WNW 16 26 30.3 1026 10 16.0934 N/A
6:35 am 06:35 Clear 23 -4.9 19 -7.5 82 82 WNW 14 22 30.3 1026 10 16.0934 N/A
6:55 am 06:55 Clear 23 -4.8 18 -7.6 81 81 WNW 14 22 30.3 1026 10 16.0934 N/A
7:15 am 07:15 Clear 23 -5.1 18 -7.8 82 82 WNW 14 22 30.33 1027 10 16.0934 N/A
7:35 am 07:35 Clear 23 -5.2 18 -7.8 82 82 WNW 13 20 30.33 1027 10 16.0934 N/A
7:55 am 07:55 Clear 23 -5 18 -7.7 82 82 WNW 13 20 30.33 1027 10 16.0934 N/A
8:15 am 08:15 Sunny 23 -5 18 -7.7 82 82 WNW 12 19 30.33 1027 10 16.0934 N/A
8:35 am 08:35 Sunny 24 -4.5 19 -7.5 80 80 WNW 14 22 30.33 1027 10 16.0934 N/A
8:55 am 08:55 Sunny 25 -4 19 -7.1 79 79 WNW 17 28 30.36 1028 10 16.0934 N/A
9:15 am 09:15 Sunny 26 -3.3 20 -6.7 78 78 WNW 17 28 30.33 1027 10 16.0934 N/A
9:35 am 09:35 Sunny 28 -2 22 -5.8 76 76 WNW 15 24 30.36 1028 10 16.0934 N/A
9:55 am 09:55 Sunny 30 -1 22 -5.4 72 72 WNW 13 20 30.36 1028 10 16.0934 N/A
10:15 am 10:15 Sunny 32 -0.1 23 -5 70 70 WNW 16 26 30.33 1027 10 16.0934 N/A
10:35 am 10:35 Sunny 34 0.9 24 -4.5 68 68 WNW 13 20 30.33 1027 10 16.0934 N/A
10:55 am 10:55 Sunny 35 1.7 24 -4.6 63 63 WNW 14 22 30.33 1027 10 16.0934 N/A
11:15 am 11:15 Sunny 37 2.6 25 -4.1 62 62 WNW 13 20 30.3 1026 10 16.0934 N/A
11:35 am 11:35 Sunny 38 3.6 26 -3.6 60 60 WNW 14 22 30.3 1026 10 16.0934 N/A
11:55 am 11:55 Sunny 39 4.1 26 -3.5 58 58 WNW 14 22 30.3 1026 10 16.0934 N/A
12:15 pm 12:15 Sunny 41 4.8 26 -3.4 56 56 WNW 16 26 30.27 1025 10 16.0934 N/A
12:35 pm 12:35 Sunny 42 5.3 26 -3.1 55 55 WNW 15 24 30.27 1025 10 16.0934 N/A
12:55 pm 12:55 Sunny 42 5.7 26 -3.1 54 54 WNW 16 26 30.24 1024 10 16.0934 N/A
1:15 pm 13:15 Sunny 43 6.2 27 -2.9 52 52 WNW 16 26 30.24 1024 10 16.0934 N/A
1:35 pm 13:35 Sunny 44 6.6 27 -3 51 51 WNW 16 26 30.21 1023 10 16.0934 N/A
1:55 pm 13:55 Sunny 45 7.1 27 -2.9 49 49 WNW 15 24 30.21 1023 10 16.0934 N/A
2:15 pm 14:15 Sunny 46 7.8 27 -2.6 48 48 W 13 20 30.21 1023 10 16.0934 N/A
2:35 pm 14:35 Sunny 47 8.5 28 -2.4 47 47 W 10 17 30.18 1022 10 16.0934 N/A
2:55 pm 14:55 Sunny 47 8.5 28 -2.5 46 46 WNW 10 17 30.18 1022 10 16.0934 N/A
3:15 pm 15:15 Sunny 48 8.7 28 -2.5 46 46 W 10 17 30.18 1022 10 16.0934 N/A
3:35 pm 15:35 Sunny 48 9.1 28 -2.4 45 45 W 7 11 30.21 1023 10 16.0934 N/A
3:55 pm 15:55 Sunny 48 9.1 28 -2.1 46 46 W 8 13 30.21 1023 10 16.0934 N/A
4:15 pm 16:15 Sunny 48 8.9 28 -2 47 47 W 7 11 30.18 1022 10 16.0934 N/A
4:35 pm 16:35 Sunny 47 8.5 29 -1.8 49 49 W 7 11 30.18 1022 10 16.0934 N/A
4:55 pm 16:55 Sunny 46 7.5 28 -2 51 51 W 8 13 30.21 1023 10 16.0934 N/A
5:15 pm 17:15 Sunny 43 5.9 28 -2.5 55 55 W 7 11 30.21 1023 10 16.0934 N/A
5:35 pm 17:35 Sunny 39 4.1 26 -3.1 60 60 W 8 13 30.24 1024 10 16.0934 N/A
5:55 pm 17:55 Clear 38 3.2 26 -3.1 64 64 W 7 11 30.24 1024 10 16.0934 N/A
6:15 pm 18:15 Clear 37 2.7 26 -3.4 65 65 WSW 7 11 30.24 1024 10 16.0934 N/A
6:35 pm 18:35 Clear 35 1.4 26 -3.5 70 70 SW 3 6 30.27 1025 10 16.0934 N/A
6:55 pm 18:55 Clear 37 3 26 -3.2 64 64 WSW 5 7 30.24 1024 10 16.0934 N/A
7:15 pm 19:15 Clear 34 1 26 -3.5 72 72 WSW 5 7 30.27 1025 10 16.0934 N/A
7:35 pm 19:35 Clear 35 1.7 26 -3.4 69 69 W 6 9 30.27 1025 10 16.0934 N/A
7:55 pm 19:55 Clear 35 1.8 26 -3.4 69 69 W 5 7 30.27 1025 10 16.0934 N/A
8:15 pm 20:15 Clear 33 0.8 26 -3.4 74 74 W 3 6 30.27 1025 10 16.0934 N/A
8:35 pm 20:35 Clear 32 0 25 -3.8 76 76 W 6 9 30.24 1024 10 16.0934 N/A
8:55 pm 20:55 Clear 28 -2.3 24 -4.4 86 86 W 5 7 30.27 1025 10 16.0934 N/A
9:15 pm 21:15 Clear 28 -2.5 23 -4.8 84 84 W 5 7 30.27 1025 10 16.0934 N/A
9:35 pm 21:35 Clear 28 -2.5 24 -4.6 86 86 W 3 6 30.27 1025 10 16.0934 N/A
9:55 pm 21:55 Clear 26 -3.2 22 -5.3 86 86 Calm 30.27 1025 10 16.0934 N/A
10:15 pm 22:15 Clear 26 -3.5 22 -5.6 86 86 Calm 30.27 1025 10 16.0934 N/A
10:35 pm 22:35 Clear 25 -4 22 -5.6 89 89 Calm 30.27 1025 10 16.0934 N/A
10:55 pm 22:55 Clear 25 -3.7 22 -5.5 87 87 W 5 7 30.27 1025 10 16.0934 N/A
11:15 pm 23:15 Clear 24 -4.5 21 -6.2 88 88 Calm 30.27 1025 10 16.0934 N/A
11:35 pm 23:35 Clear 25 -3.7 22 -5.4 88 88 Calm 30.24 1024 10 16.0934 N/A
11:55 pm 23:55 Clear 25 -3.9 22 -5.6 88 88 Calm 30.24 1024 10 16.0934 N/A

Powered by AerisWeather